This is the latest recevied weather packets stored in our database for station/object KG5APU. If no packets are shown the sender has not sent any weather packets the latest 10 day(s).
| Time | Temp. | Humidity | Pressure | Rain* | Wind** | Luminosity | Snow |
|---|---|---|---|---|---|---|---|
| 1777753069 | 24.44° C | 35% | 1021.1 hPa | 0 mm | - | 740 W/m² | - |
| 1777752466 | 24.44° C | 36% | 1021.1 hPa | 0 mm | - | 749 W/m² | - |
| 1777751866 | 24.44° C | 36% | 1021.3 hPa | 0 mm | - | 767 W/m² | - |
| 1777751264 | 24.44° C | 37% | 1021.2 hPa | 0 mm | - | 781 W/m² | - |
| 1777750662 | 23.89° C | 37% | 1021.6 hPa | 0 mm | - | 796 W/m² | - |
| 1777750060 | 23.89° C | 37% | 1021.6 hPa | 0 mm | - | 810 W/m² | - |
| 1777749460 | 23.89° C | 37% | 1021.6 hPa | 0 mm | - | 815 W/m² | - |
| 1777748855 | 23.33° C | 38% | 1021.8 hPa | 0 mm | - | 828 W/m² | - |
| 1777748252 | 23.33° C | 38% | 1021.9 hPa | 0 mm | - | 832 W/m² | - |
| 1777747651 | 22.78° C | 39% | 1022.2 hPa | 0 mm | - | 842 W/m² | - |
| 1777747050 | 23.33° C | 36% | 1022 hPa | 0 mm | - | 844 W/m² | - |
| 1777746447 | 22.78° C | 40% | 1022.2 hPa | 0 mm | - | 844 W/m² | - |
| 1777745846 | 23.33° C | 39% | 1022.2 hPa | 0 mm | - | 847 W/m² | - |
| 1777745242 | 23.89° C | 38% | 1022.5 hPa | 0 mm | - | 845 W/m² | - |
| 1777744639 | 23.33° C | 41% | 1022.6 hPa | 0 mm | - | 844 W/m² | - |
| 1777744037 | 22.22° C | 39% | 1022.5 hPa | 0 mm | - | 840 W/m² | - |
| 1777743438 | 22.22° C | 41% | 1022.7 hPa | 0 mm | - | 834 W/m² | - |
| 1777742833 | 22.22° C | 44% | 1022.9 hPa | 0 mm | - | 827 W/m² | - |
| 1777742230 | 21.67° C | 46% | 1022.8 hPa | 0 mm | - | 817 W/m² | - |
| 1777741630 | 22.22° C | 45% | 1023 hPa | 0 mm | - | 805 W/m² | - |
| 1777741029 | 21.67° C | 43% | 1023.2 hPa | 0 mm | - | 790 W/m² | - |
| 1777740429 | 21.11° C | 45% | 1023 hPa | 0 mm | - | 778 W/m² | - |
| 1777739828 | 20.56° C | 44% | 1022.9 hPa | 0 mm | - | 762 W/m² | - |
| 1777739228 | 20.56° C | 44% | 1022.9 hPa | 0 mm | - | 742 W/m² | - |
| 1777738628 | 21.11° C | 46% | 1022.7 hPa | 0 mm | - | 721 W/m² | - |
* Rain latest hour (hover to see other rain measurements)
** Current wind speed in m/s (hover to see current wind gust speed)